Weather

DAILY 7 DAY TOTAL
onrain

Note: Some stations are located near irrigated fields and may also report irrigation

Alliston Mount Forest Blyth Guelph Grand Bend Strathroy Woodstock Belmont Simcoe Leamington Chatham West Lorne






Chatham WIN - Historical Weather Data
Date Max Temp (°C) Min Temp (°C) Avg Temp (°C) Rain (mm) 7Day Rain(mm) Total Rain(mm) Avg RH (%)
7/20/2018 28.8 17.1 22.1 3.2 3.4 184.8 88.5
7/19/2018 27.9 13.5 21.2 0.0 0.2 181.6 69.5
7/18/2018 26.4 12.8 19.7 0.0 0.2 181.6 74.4
7/17/2018 28.5 16.4 23.2 0.0 0.2 181.6 66.6
7/16/2018 33.0 20.6 26.2 0.2 0.2 181.6 82.7
7/15/2018 32.8 20.1 26.6 0.0 0.0 181.4 75.5
7/14/2018 30.9 18.9 25.7 0.0 0.0 181.4 75.3
7/13/2018 31.3 15.9 24.3 0.0 0.0 181.4 65.4
7/12/2018 28.4 11.2 21.0 0.0 0.0 181.4 65.2
7/11/2018 29.1 12.7 21.1 0.0 0.0 181.4 64.4
7/10/2018 29.8 16.1 24.2 0.0 0.0 181.4 57.8
7/9/2018 31.9 12.7 23.8 0.0 0.0 181.4 68.8
7/8/2018 29.1 10.8 20.8 0.0 0.0 181.4 66.7
7/7/2018 26.0 9.8 18.9 0.0 0.0 181.4 59.8
7/6/2018 24.5 13.5 20.4 0.0 0.0 181.4 62.4
7/5/2018 33.9 23.4 28.0 0.0 0.0 181.4 80.7
7/4/2018 34.2 19.8 27.4 0.0 0.0 181.4 74.5
7/3/2018 31.6 18.6 25.6 0.0 3.6 181.4 73.9
7/2/2018 32.1 23.0 28.0 0.0 9.8 181.4 73.0
7/1/2018 33.6 22.3 28.8 0.0 9.8 181.4 71.6
6/30/2018 33.8 23.4 28.7 0.0 15.2 181.4 76.7
6/29/2018 31.6 18.4 26.1 0.0 15.6 181.4 76.5
6/28/2018 29.0 18.6 22.7 0.0 16.2 181.4 86.3
6/27/2018 25.5 19.7 21.8 3.6 16.2 181.4 95.5
6/26/2018 25.3 10.6 19.0 6.2 14.8 177.8 79.7
6/25/2018 23.5 12.1 17.5 0.0 15.2 171.6 81.3
6/24/2018 22.1 13.9 19.7 5.4 18.8 171.6 94.8
6/23/2018 26.4 18.2 21.4 0.4 13.4 166.2 91.3
6/22/2018 21.9 17.3 18.6 0.6 24.2 165.8 79.1
6/21/2018 24.7 11.7 19.4 0.0 23.6 165.2 78.3
6/20/2018 22.8 15.6 18.8 2.2 23.6 165.2 87.8
6/19/2018 24.6 16.9 20.8 6.6 21.4 163.0 85.7
6/18/2018 33.8 21.6 28.0 3.6 14.8 156.4 78.4
6/17/2018 32.2 16.6 25.3 0.0 11.2 152.8 79.2
6/16/2018 28.3 15.9 21.7 11.2 11.6 152.8 80.1
6/15/2018 27.4 10.8 19.8 0.0 0.4 141.6 59.8
6/14/2018 27.7 15.4 21.5 0.0 0.4 141.6 53.6
6/13/2018 29.4 17.0 23.8 0.0 0.4 141.6 71.7
6/12/2018 25.5 12.9 20.3 0.0 0.4 141.6 79.7
6/11/2018 25.0 15.4 20.1 0.0 0.6 141.6 56.6
6/10/2018 20.2 16.4 18.0 0.4 0.6 141.6 86.7
6/9/2018 20.0 14.8 18.2 0.0 3.0 141.2 78.8
6/8/2018 27.9 13.9 20.4 0.0 3.0 141.2 72.3
6/7/2018 26.4 14.1 19.8 0.0 3.0 141.2 72.4
6/6/2018 20.3 9.5 14.6 0.0 3.0 141.2 71.9
6/5/2018 18.8 9.0 15.2 0.2 3.0 141.2 76.2
6/4/2018 21.8 15.6 18.0 0.0 2.8 141.0 65.1
6/3/2018 21.8 11.7 17.9 2.8 3.2 141.0 88.1
6/2/2018 22.2 11.3 16.0 0.0 0.4 138.2 84.9
6/1/2018 27.5 12.7 21.9 0.0 0.4 138.2 84.1
5/31/2018 31.9 21.6 25.9 0.0 0.4 138.2 75.3
5/30/2018 29.5 19.4 24.7 0.0 0.4 138.2 73.8
5/29/2018 30.5 18.3 24.8 0.0 0.4 138.2 69.5
5/28/2018 32.7 17.4 25.8 0.4 4.4 138.2 71.1
5/27/2018 28.6 15.2 22.3 0.0 9.2 137.8 86.7
5/26/2018 26.3 15.9 21.4 0.0 9.8 137.8 76.8
5/25/2018 29.2 13.2 22.3 0.0 11.8 137.8 56.4
5/24/2018 27.6 10.6 19.9 0.0 11.8 137.8 67.3
5/23/2018 25.6 10.1 17.1 0.0 11.8 137.8 78.7
5/22/2018 22.9 12.3 16.4 4.0 11.8 137.8 94.3
5/21/2018 19.4 6.0 12.8 5.2 22.8 133.8 80.2
5/20/2018 19.2 8.5 13.5 0.6 17.8 128.6 93.4
5/19/2018 25.0 13.5 18.2 2.0 24.0 128.0 88.2
5/18/2018 21.3 10.4 15.8 0.0 90.4 126.0 62.5
5/17/2018 22.9 10.0 15.5 0.0 102.4 126.0 81.6
5/16/2018 23.0 7.5 15.4 0.0 102.4 126.0 86.2
5/15/2018 22.3 10.1 17.3 15.0 106.4 126.0 91.3
5/14/2018 21.4 10.1 14.9 0.2 91.4 111.0 98.2
5/13/2018 17.6 6.5 11.7 6.8 91.2 110.8 88.4
5/12/2018 11.2 6.3 8.0 68.4 84.4 104.0 96.5
5/11/2018 8.0 4.0 6.3 12.0 16.0 35.6 82.6
5/10/2018 21.2 7.7 17.5 0.0 6.2 23.6 76.2
5/9/2018 25.7 8.0 17.6 4.0 18.6 23.6 68.6
5/8/2018 20.6 4.2 13.8 0.0 19.6 19.6 63.8
5/7/2018 18.1 4.6 12.1 0.0 19.6 19.6 71.8
5/6/2018 22.6 9.2 14.9 0.0 19.6 19.6 75.3
5/5/2018 23.8 10.1 16.9 0.0 19.6 19.6 69.9
5/4/2018 24.3 11.8 17.6 2.2 20.2 19.6 82.0
5/3/2018 23.2 11.2 16.8 12.4 19.8 17.4 97.3
5/2/2018 28.2 13.4 20.9 5.0 7.4 5.0 57.0
5/1/2018 26.6 6.6 17.3 0.0 6.2 0.0 49.3